ATLAS 5 CENTAUR DEB, 44679

Orbit data source: Space-Track

ATLAS 5 CENTAUR DEB, 44679 is space debris in HEO originally from a launch on Wed, 17 Oct 2018 UTC launched from the Air Force Eastern Test Range (AFETR). Debris objects in space refer to the collection of defunct objects orbiting the Earth. Examples of debris include non-operational satellites, rocket bodies, and fragments generated from explosions, collisions, or faulty payload assembly.

Loading next visibility...
Identifier
44679, 2018-079AR
Orbit
HEO
Last TLE update
5 days ago
Origin
Flag of USUnited Launch Alliance/Lockheed Martin (US)
Manufacturer
ULA Decatur
Mission
Spacecraft
Bus & Motor
Unknown
Mass
Unknown
Launch date (UTC)
2018-10-17 (7 years ago)
Launch vehicle
Unknown
Launch site
Air Force Eastern Test Range (AFETR)
Object type
Payload
Rocket body
Debris
Shape & HBR
Unknown
Radar Cross Section
RCS unknown

Expand to show TLE details & history

TLE from 5 days ago
0 ATLAS 5 CENTAUR DEB
1 44679U 18079AR  25181.98972236 -.00000129  00000-0  00000-0 0  9991
2 44679  13.0315  68.0663 4694351 246.9406  57.6717  1.79402215 40375
Epoch: 2025-06-30T23:45Z
TLE epoch observation values (Epoch: 2025-06-30T23:45:12.011Z)
Latitude
0.00003°
Longitude
152.48189°
Altitude
20,976.188 km
Speed
3.9 km/s
True Right ascension
04h 32m 17s
True Declination
0° 00' 00"
Sunlit
Object was in daylight at epoch
Visualization orbit readout
Latitude
12.96241°
Longitude
-110.76898°
Altitude
31,369.575 km
Speed
2.681 km/s
Apparent Right ascension
11h 29m 50s
Apparent Declination
6° 54' 57"
Sunlit
Object is in daylight
Visualization observer readout
Local Sidereal Time
05:43:30
Azimuth
86.858° E
Elevation
7.044°
Doppler factor
1
Orbital elements
Apogee altitude
35,665.345 km
Perigee altitude
8,802.388 km
Semi-major axis
28,612.003 km
Eccentricity
0.46944
Inclination
13.0315°
RAAN
68.0663°
Arg. of periapsis
246.9406°
True anomaly
Unknown
Mean anomaly
57.6717°
Eccentric anomaly
Unknown
Mean motion
0.44846 °/min
Orbital period
802.75 mins
BSTAR
0
Loading maneuver chart data...
Loading SW <> Apogee altitude chart data...

ATLAS 5 CENTAUR DEB Visibility forecast

Observer location: undefined°, undefined°

Span
Click to sort rows by Start time (UTC) header in descending order
Start Az.
Max El. time (UTC)
Max El. Az.
Max El.
End time (UTC)
End Az.
371 mins2025-07-06 11:37:04.838Z202.523° SW2025-07-06 17:48:04.838Z112.612° SE29.409°2025-07-06 17:48:04.838Z112.612° SE
|